[[{"header":{"parameterUnit":"m.s-1","parameterCategory":1,"la1":30.2991,"la2":30.254,"lo1":-89.0895,"lo2":-89.0444,"dy":0.0017,"dx":0.0017,"nx":28,"ny":28,"refTime":"2026-02-26T09:00:00:Z","depth":0,"parameterNumber":2,"parameterNumberName":"U-component_of_WINDS"},"data":[0,0,0,0,0,0,0,0,0,0,0,0,0,0,0,0,0,0,0,0,0,0,0,0,0,0,0,0,0,0,0,0,0,0,0,0,0,0,0,0,0,0,0,0,0,0,0,0,0,0,0,0,0,0,0,0,0,0,0.417,0.417,0,0.4183,0.4183,0.4184,0.4173,0.4172,0.4172,0.4171,0.4187,0.4187,0.4188,0,0,0,0,0,0,0,0,0,0,0,0,0,0.414,0.4141,0.417,0.417,0.4171,0.4183,0.4184,0.4184,0.4173,0.4172,0.4172,0.4171,0.4186,0.4187,0.4188,0,0,0,0,0,0,0,0,0,0,0,0,0,0.4153,0.4141,0.417,0.4167,0.4167,0.4183,0.4184,0.4184,0.4173,0.4172,0.4172,0.4171,0.4186,0.4187,0.4188,0.421,0,0,0.4192,0.4193,0,0,0,0,0,0,0,0,0.4153,0.4155,0.4167,0.4167,0.4167,0.4176,0.4178,0.4193,0.4173,0.4171,0.4171,0.4171,0.4184,0.4185,0.4189,0.4211,0.4211,0.4192,0.4193,0.4194,0.4194,0,0,0,0,0,0,0,0.4152,0.4154,0.4175,0.4167,0.4167,0.4166,0.4167,0.4181,0.4181,0.4171,0.417,0.4172,0.4183,0.4188,0.4189,0.4211,0.4192,0.4193,0.4194,0.4195,0.4256,0.4257,0,0,0,0,0,0,0.4151,0.4153,0.4175,0.4176,0.4158,0.4167,0.4168,0.4174,0.4181,0.4181,0.4172,0.4171,0.4186,0.4188,0.419,0.4218,0.4194,0.4195,0.4195,0.4255,0.4256,0.4257,0,0,0,0,0,0,0.415,0.4153,0.4175,0.4164,0.4167,0.4168,0.4174,0.4174,0.4179,0.4182,0.4182,0.4176,0.4186,0.4188,0.4206,0.4218,0.4195,0.4196,0.4254,0.4255,0.4257,0.4273,0,0,0,0,0,0,0.4149,0.4153,0.4159,0.4165,0.4168,0.4189,0.4175,0.4175,0.4181,0.4179,0.4186,0.4186,0.4185,0.4204,0.4207,0.422,0.4197,0.4253,0.4255,0.4256,0.4272,0.4275,0.4278,0,0,0,0,0,0.4148,0.4163,0.416,0.4162,0.4176,0.419,0.4191,0.4189,0.4181,0.419,0.4192,0.4186,0.4217,0.4206,0.4209,0.4222,0.4252,0.4254,0.4256,0.427,0.4274,0.4278,0,0,0,0,0,0,0.4159,0.4163,0.416,0.4176,0.4183,0.4188,0.4197,0.4193,0.4202,0.4201,0.4199,0.42,0.422,0.4223,0.4211,0.4246,0.4233,0.4236,0.4243,0.4247,0.425,0.4249,0.4198,0,0,0,0,0,0.4163,0.4173,0.4177,0.4191,0.4195,0.4196,0.4201,0.42,0.4206,0.4209,0.4213,0.422,0.4232,0.424,0.425,0.4272,0.4275,0.4283,0.4287,0.4289,0.4292,0.4308,0.4312,0.4264,0.4264,0.4264,0,0,0.4172,0.4176,0.4182,0.4193,0.4198,0.421,0.4198,0.421,0.4219,0.4211,0.4228,0.4232,0.4241,0.4262,0.4271,0.4265,0.4306,0.4292,0.4294,0.4295,0.431,0.4315,0.4319,0.4265,0.4265,0.4264,0,0,0.4194,0.4197,0.4211,0.4217,0.4224,0.4226,0.4229,0.4236,0.4238,0.4255,0.4251,0.4263,0.4282,0.4289,0.4295,0.4326,0.4322,0.4329,0.4346,0.4361,0.4365,0.4369,0.4382,0.4387,0.4332,0.4332,0.4332,0,0.4204,0.4221,0.4219,0.4232,0.4239,0.4233,0.4249,0.4254,0.4265,0.4271,0.4264,0.4291,0.4296,0.432,0.4328,0.4332,0.4339,0.4328,0.4365,0.4368,0.4371,0.4384,0.4389,0.4333,0.4333,0.4332,0.4332,0,0.4234,0.4246,0.4257,0.4268,0.4276,0.4291,0.4293,0.4302,0.4301,0.4303,0.4324,0.433,0.4344,0.435,0.4347,0.4375,0.4372,0.4365,0.4352,0.4377,0.4389,0.4394,0.4334,0.4334,0.4334,0.4333,0,0,0.4261,0.4274,0.4278,0.4285,0.4295,0.4305,0.4321,0.4335,0.4344,0.4352,0.4368,0.4386,0.4381,0.4388,0.4388,0.4401,0.4429,0.4393,0.4394,0.4402,0.4464,0.447,0.4475,0.4426,0.4427,0.4428,0.4464,0,0.4285,0.4312,0.4313,0.4338,0.4351,0.4348,0.4363,0.4372,0.4376,0.4389,0.4394,0.4408,0.4398,0.4404,0.4417,0.4423,0.4442,0.442,0.4442,0.4443,0.4442,0.4481,0.4487,0.452,0.4468,0.4469,0.4469,0,0.4316,0.4328,0.4355,0.4367,0.4372,0.4385,0.44,0.4412,0.4423,0.4426,0.4436,0.4435,0.4454,0.4441,0.4469,0.4455,0.4464,0.4469,0.4471,0.4473,0.4458,0.4487,0.453,0.4536,0.4476,0.4476,0.4475,0,0.4336,0.4358,0.4378,0.4384,0.4397,0.4407,0.4414,0.4425,0.4434,0.4448,0.4455,0.447,0.4479,0.4492,0.4497,0.4486,0.4526,0.4512,0.4531,0.4531,0.4539,0.4539,0.4586,0.4543,0.4543,0.4543,0.4543,0,0.4364,0.4381,0.4388,0.44,0.4421,0.4423,0.4443,0.4449,0.446,0.4476,0.4474,0.4488,0.4492,0.4509,0.4512,0.4537,0.4541,0.4545,0.4546,0.4546,0.4546,0.4553,0.4551,0.4544,0.4544,0.4544,0.4543,0,0.4388,0.4393,0.4415,0.4428,0.4432,0.4447,0.4458,0.4472,0.4477,0.4497,0.4502,0.451,0.453,0.4536,0.4558,0.4561,0.4591,0.4589,0.4587,0.4588,0.4607,0.4606,0.4662,0.4671,0.462,0.462,0.4621,0,0.4406,0.442,0.4435,0.4445,0.4452,0.4468,0.4479,0.4483,0.4494,0.4511,0.4523,0.4543,0.4559,0.4591,0.46,0.4619,0.4619,0.4637,0.4621,0.4622,0.4622,0.4622,0.4625,0.464,0.4641,0.4641,0.4642,0,0.4438,0.444,0.4455,0.4472,0.4485,0.4499,0.4512,0.4521,0.4527,0.4541,0.4561,0.4574,0.4599,0.462,0.464,0.4649,0.4648,0.4647,0.4653,0.4653,0.4652,0.4656,0.4597,0.4645,0.4645,0.4645,0.4644,0.4644,0.446,0.4474,0.4488,0.4506,0.4517,0.453,0.4544,0.4553,0.457,0.459,0.4592,0.4616,0.4632,0.4659,0.4669,0.4688,0.4683,0.4691,0.4693,0.4695,0.4698,0.4649,0.4692,0.4692,0.4692,0.4692,0.4692,0,0.4494,0.4503,0.452,0.454,0.4555,0.4553,0.4568,0.4582,0.4602,0.4617,0.4633,0.4659,0.468,0.4693,0.4715,0.4729,0.4729,0.4734,0.4734,0.4737,0.47,0.4694,0.4734,0.4734,0.4734,0.4734,0.4734,0.4734,0.4513,0.4537,0.4542,0.4573,0.4583,0.4605,0.4615,0.4629,0.4641,0.467,0.4688,0.4696,0.4711,0.4735,0.4756,0.4759,0.4768,0.4775,0.4778,0.4743,0.4739,0.4735,0.4729,0.4776,0.4776,0.4814,0.4814,0.4814]},{"header":{"parameterUnit":"m.s-1","parameterCategory":1,"la1":30.2991,"la2":30.254,"lo1":-89.0895,"lo2":-89.0444,"dy":0.0017,"dx":0.0017,"nx":28,"ny":28,"refTime":"2026-02-26T09:00:00:Z","depth":0,"parameterNumber":3,"parameterNumberName":"V-component_of_WINDS"},"data":[0,0,0,0,0,0,0,0,0,0,0,0,0,0,0,0,0,0,0,0,0,0,0,0,0,0,0,0,0,0,0,0,0,0,0,0,0,0,0,0,0,0,0,0,0,0,0,0,0,0,0,0,0,0,0,0,0,0,4.175,4.175,0,4.175,4.175,4.175,4.1703,4.1701,4.17,4.1699,4.17,4.1701,4.1702,0,0,0,0,0,0,0,0,0,0,0,0,0,4.1711,4.1712,4.175,4.175,4.175,4.175,4.175,4.175,4.1703,4.1701,4.17,4.1698,4.17,4.1701,4.1702,0,0,0,0,0,0,0,0,0,0,0,0,0,4.1722,4.1713,4.175,4.1726,4.1724,4.175,4.175,4.175,4.1703,4.1701,4.17,4.1698,4.1699,4.1701,4.1703,4.1751,0,0,4.1708,4.1709,0,0,0,0,0,0,0,0,4.1721,4.1723,4.173,4.1728,4.1726,4.1724,4.1737,4.175,4.1704,4.1711,4.1699,4.1697,4.171,4.1711,4.1715,4.1751,4.1751,4.1708,4.1709,4.171,4.1711,0,0,0,0,0,0,0,4.172,4.1723,4.175,4.173,4.1727,4.1717,4.1716,4.1739,4.1721,4.171,4.1707,4.1708,4.1708,4.1713,4.1714,4.1751,4.1708,4.171,4.1711,4.1712,4.1831,4.1833,0,0,0,0,0,0,4.1723,4.1722,4.175,4.175,4.1719,4.1719,4.1718,4.1727,4.1721,4.1718,4.1709,4.1705,4.1711,4.1712,4.1714,4.1773,4.171,4.1712,4.1713,4.1829,4.1832,4.1834,0,0,0,0,0,0,4.1722,4.1726,4.175,4.1735,4.1738,4.1722,4.1732,4.1728,4.1732,4.172,4.1716,4.1717,4.171,4.1712,4.1743,4.1772,4.1713,4.1714,4.1827,4.183,4.1833,4.1889,0,0,0,0,0,0,4.1721,4.1726,4.1743,4.1736,4.1739,4.1778,4.1733,4.1729,4.1736,4.1731,4.1726,4.1724,4.1708,4.1741,4.1745,4.1774,4.1716,4.1824,4.1828,4.1832,4.1885,4.1894,4.1902,0,0,0,0,0,4.172,4.1758,4.1744,4.1748,4.176,4.178,4.1781,4.1762,4.1738,4.1756,4.1749,4.1724,4.1768,4.1744,4.1749,4.1778,4.1822,4.1827,4.1832,4.1881,4.1892,4.1902,0,0,0,0,0,0,4.1768,4.1757,4.1741,4.1778,4.178,4.1772,4.1794,4.1774,4.1783,4.1778,4.1754,4.1754,4.179,4.1787,4.176,4.1827,4.1791,4.1797,4.1827,4.1838,4.1846,4.1847,4.1717,0,0,0,0,0,4.1783,4.18,4.1789,4.1823,4.1825,4.181,4.1817,4.1803,4.1804,4.1805,4.1799,4.1802,4.1817,4.1827,4.184,4.1884,4.1884,4.1907,4.1916,4.1923,4.1928,4.1955,4.1966,4.185,4.185,4.185,0,0,4.1814,4.181,4.1822,4.1833,4.1833,4.1852,4.181,4.1831,4.1846,4.1808,4.1838,4.1834,4.1836,4.1875,4.1892,4.1874,4.1961,4.1929,4.1935,4.1936,4.1961,4.1972,4.1982,4.1853,4.1852,4.1852,0,0,4.1881,4.1879,4.1908,4.191,4.1911,4.1901,4.1908,4.1903,4.1899,4.1929,4.1902,4.1919,4.1944,4.1948,4.1953,4.2025,4.2003,4.2029,4.2074,4.21,4.2109,4.2117,4.2145,4.2155,4.2035,4.2035,4.2035,0,4.192,4.1947,4.1926,4.195,4.1956,4.1924,4.1955,4.1957,4.1962,4.1968,4.1948,4.1981,4.198,4.2021,4.2038,4.2043,4.2052,4.203,4.211,4.2117,4.2125,4.2151,4.2161,4.2038,4.2038,4.2037,4.2037,0,4.1995,4.2015,4.2038,4.2045,4.2055,4.2082,4.2066,4.2078,4.2064,4.2057,4.2089,4.2087,4.21,4.2108,4.2093,4.2148,4.2137,4.2114,4.2077,4.2139,4.2164,4.2174,4.2043,4.2042,4.2041,4.204,0,0,4.2091,4.2088,4.2097,4.2102,4.2102,4.2117,4.2144,4.2157,4.2169,4.2174,4.2198,4.2221,4.2201,4.2206,4.2192,4.2215,4.2275,4.2189,4.2189,4.2207,4.2338,4.2357,4.2369,4.2261,4.2263,4.2264,4.2339,0,4.2157,4.2202,4.2186,4.2233,4.2252,4.2223,4.2247,4.2251,4.2245,4.2262,4.2255,4.2274,4.2244,4.2247,4.2269,4.2263,4.2301,4.2257,4.2284,4.2285,4.2286,4.2381,4.24,4.247,4.2348,4.2349,4.235,0,4.224,4.225,4.23,4.23,4.2307,4.2328,4.2341,4.2356,4.2361,4.2356,4.2364,4.2346,4.2374,4.2338,4.2377,4.2348,4.2358,4.2357,4.236,4.2362,4.2322,4.2388,4.2492,4.2503,4.2365,4.2364,4.2363,0,4.2308,4.2334,4.2367,4.2371,4.2371,4.2388,4.2389,4.2391,4.2402,4.2413,4.242,4.2434,4.2442,4.2454,4.2441,4.2415,4.2484,4.2446,4.2481,4.2482,4.2497,4.2497,4.2606,4.2502,4.2502,4.2501,4.2501,0,4.2384,4.2416,4.2398,4.2419,4.2455,4.2436,4.2472,4.247,4.2473,4.2494,4.247,4.249,4.2471,4.249,4.248,4.2516,4.252,4.2517,4.2515,4.252,4.2521,4.2527,4.2523,4.2504,4.2504,4.2503,4.2503,0,4.2466,4.2455,4.249,4.2488,4.2488,4.2515,4.2514,4.2534,4.2528,4.2555,4.256,4.255,4.2572,4.256,4.2582,4.2576,4.2623,4.2613,4.2622,4.262,4.2657,4.2654,4.2775,4.2791,4.2675,4.2676,4.2677,0,4.2516,4.254,4.2541,4.2554,4.2557,4.2577,4.2588,4.2571,4.2584,4.2593,4.2612,4.2632,4.2647,4.2683,4.2679,4.2696,4.2687,4.2729,4.269,4.2696,4.2691,4.269,4.2693,4.2737,4.2738,4.2739,4.274,0,4.2607,4.2601,4.2617,4.2633,4.2646,4.2658,4.2667,4.2679,4.2663,4.2679,4.2701,4.2713,4.2736,4.2757,4.2773,4.2775,4.2756,4.2753,4.2762,4.2769,4.2774,4.2774,4.2645,4.275,4.2749,4.2748,4.2748,4.2747,4.2675,4.2696,4.2702,4.2721,4.2727,4.2737,4.2757,4.2754,4.2772,4.279,4.278,4.2807,4.2814,4.2833,4.2838,4.286,4.2843,4.2857,4.286,4.2864,4.287,4.277,4.2862,4.2862,4.2862,4.2861,4.2861,0,4.2766,4.2769,4.2787,4.2802,4.2819,4.28,4.281,4.2825,4.2849,4.2857,4.2873,4.29,4.2921,4.2919,4.2939,4.2957,4.2949,4.2963,4.2962,4.2963,4.2883,4.2873,4.2969,4.2969,4.2969,4.2969,4.2969,4.2969,4.2816,4.2852,4.2847,4.2887,4.2889,4.2916,4.2923,4.2933,4.294,4.2972,4.2989,4.2988,4.2993,4.3013,4.3032,4.3031,4.304,4.3058,4.3054,4.2979,4.2968,4.2958,4.295,4.306,4.306,4.3133,4.3134,4.3134]}]]